Zurück zum Katalog

ONEWEB-0703

AktivKommunikationPO
NORAD 56724·PAYLOAD·🇬🇧 United Kingdom

Gestartet May 20, 2023 von Vandenberg Space Force Base

Loading…

Nächste Überflüge (nächste 24 Stunden)

TLE

AktuellSource: CelesTrak SupGP

Epoche: Sep 14, 2026, 20:40 UTC

1 56724C 23068Q   26257.86160139  .00002708  00000+0  72017-2 0  2571
2 56724  87.8994 241.3227 0002841  76.1781 321.0573 13.15548543    18

Verfolge ONEWEB-0703 in Echtzeit mit AllMySat

Download on the App Store